Myrtle Beach, SC

3:54 PM EDT on June 26, 2017 (GMT -0400)
Myrtle Beach International

Weather History for KMYR - June, 2013

Change the Weather History Date:

Sunday, June 23, 2013

  Actual Average Record
Temperature  
Mean Temperature 78 °F -  
Max Temperature 84 °F 82 °F 97 °F (1991)
Min Temperature 71 °F 68 °F 60 °F (1992)
Cooling Degree Days 12    
Growing Degree Days 28 (Base 50)    
Moisture  
Dew Point 72 °F    
Average Humidity 82    
Maximum Humidity 94    
Minimum Humidity 70    
Precipitation  
Precipitation 0.00 in - - ()
Sea Level Pressure  
Sea Level Pressure 30.18 in    
Wind  
Wind Speed 7 mph (SSE)    
Max Wind Speed 15 mph    
Max Gust Speed 17 mph    
Visibility 9 miles    
Events      
Averages and records for this station are not official NWS values.
T = Trace of Precipitation, MM = Missing Value Source: NWS Daily Summary

Daily Weather History Graph

Daily Weather History Graph

Search for Another Location

Airport or City:

Trip Planner

Search our weather history database for the weather conditions in past years. The results will help you decide how hot, cold, wet, or windy it might be!

Date:

Astronomy

Jun. 23, 2013 Rise Set
Actual Time 6:06 AM EDT 8:29 PM EDT
Civil Twilight 5:37 AM EDT 8:58 PM EDT
Nautical Twilight 5:01 AM EDT 9:34 PM EDT
Astronomical Twilight 4:22 AM EDT 10:13 PM EDT
Moon 8:44 PM EDT (6/23) 6:18 AM EDT (6/23)
Length of Visible Light 15h 21m
Length of Day
14h 23m
Full, 100% of the Moon is Illuminated
Jun 23
Full
Jun 30
Last Quarter
Jul 8
New
Jul 15
First Quarter
Jul 22
Full

Hourly Weather History & Observations

Time (EDT) Temp. Heat Index Dew Point Humidity Pressure Visibility Wind Dir Wind Speed Gust Speed Precip Events Conditions
12:15 AM 77.0 °F - 71.6 °F 83% 30.17 in 10.0 mi South 10.4 mph - N/A   Partly Cloudy
12:35 AM 77.0 °F - 71.6 °F 83% 30.17 in 10.0 mi SSW 6.9 mph - N/A   Partly Cloudy
12:55 AM 77.0 °F - 71.6 °F 83% 30.17 in 10.0 mi South 6.9 mph - N/A   Clear
1:15 AM 77.0 °F - 71.6 °F 83% 30.17 in 10.0 mi South 5.8 mph - N/A   Clear
1:35 AM 77.0 °F - 71.6 °F 83% 30.17 in 10.0 mi South 8.1 mph - N/A   Partly Cloudy
1:55 AM 77.0 °F - 71.6 °F 83% 30.16 in 10.0 mi South 8.1 mph - N/A   Clear
2:15 AM 77.0 °F - 71.6 °F 83% 30.16 in 10.0 mi South 8.1 mph - N/A   Clear
2:35 AM 77.0 °F - 71.6 °F 83% 30.17 in 10.0 mi South 5.8 mph - N/A   Clear
2:55 AM 77.0 °F - 71.6 °F 83% 30.17 in 10.0 mi South 4.6 mph - N/A   Partly Cloudy
3:15 AM 77.0 °F - 71.6 °F 83% 30.17 in 10.0 mi South 3.5 mph - N/A   Scattered Clouds
3:35 AM 75.2 °F - 71.6 °F 89% 30.16 in 10.0 mi Calm Calm - N/A   Partly Cloudy
3:55 AM 73.4 °F - 71.6 °F 94% 30.16 in 10.0 mi Calm Calm - N/A   Partly Cloudy
4:15 AM 73.4 °F - 69.8 °F 88% 30.17 in 10.0 mi Calm Calm - N/A   Mostly Cloudy
4:35 AM 73.4 °F - 69.8 °F 88% 30.16 in 9.0 mi Calm Calm - N/A   Clear
4:55 AM 71.6 °F - 69.8 °F 94% 30.16 in 3.0 mi Calm Calm - N/A   Clear
5:15 AM 71.6 °F - 68.0 °F 88% 30.16 in 1.8 mi Calm Calm - N/A   Clear
5:35 AM 71.6 °F - 69.8 °F 94% 30.16 in 1.5 mi Calm Calm - N/A   Clear
6:50 AM 71.6 °F - 69.8 °F 94% 30.17 in 10.0 mi Calm Calm - N/A   Clear
7:50 AM 77.0 °F - 69.8 °F 78% 30.18 in 10.0 mi SE 5.8 mph - N/A   Partly Cloudy
8:45 AM 78.8 °F - 73.4 °F 83% 30.20 in 10.0 mi SE 6.9 mph - N/A   Mostly Cloudy
9:50 AM 80.6 °F 85.4 °F 73.4 °F 79% 30.21 in 10.0 mi South 4.6 mph - N/A   Mostly Cloudy
10:50 AM 80.6 °F 85.4 °F 73.4 °F 79% 30.20 in 8.0 mi ESE 4.6 mph - N/A   Mostly Cloudy
12:45 PM 82.4 °F 88.2 °F 73.4 °F 74% 30.21 in 10.0 mi SE 11.5 mph - N/A   Mostly Cloudy
1:45 PM 84.2 °F 90.9 °F 73.4 °F 70% 30.20 in 10.0 mi NE 9.2 mph 17.3 mph N/A   Mostly Cloudy
2:20 PM 82.4 °F 89.5 °F 75.2 °F 79% 30.19 in 10.0 mi ESE 11.5 mph - N/A   Scattered Clouds
2:45 PM 82.4 °F 88.2 °F 73.4 °F 74% 30.19 in 10.0 mi SE 10.4 mph - N/A   Scattered Clouds
3:45 PM 82.4 °F 88.2 °F 73.4 °F 74% 30.18 in 10.0 mi South 13.8 mph - N/A   Scattered Clouds
4:50 PM 78.8 °F - 73.4 °F 83% 30.16 in 10.0 mi SSE 15.0 mph - N/A   Mostly Cloudy
5:47 PM 80.6 °F 84.6 °F 71.6 °F 74% 30.16 in 10.0 mi South 12.7 mph - N/A   Mostly Cloudy
6:50 PM 78.8 °F - 73.4 °F 83% 30.18 in 10.0 mi South 10.4 mph - N/A   Scattered Clouds
7:45 PM 78.8 °F - 73.4 °F 83% 30.17 in 10.0 mi South 11.5 mph - N/A   Scattered Clouds
8:45 PM 78.8 °F - 71.6 °F 78% 30.18 in 10.0 mi South 9.2 mph - N/A   Scattered Clouds
9:50 PM 78.8 °F - 73.4 °F 83% 30.20 in 10.0 mi South 10.4 mph - N/A   Scattered Clouds
10:50 PM 78.8 °F - 71.6 °F 78% 30.20 in 10.0 mi South 11.5 mph - N/A   Partly Cloudy
10:55 PM 78.8 °F - 71.6 °F 78% 30.21 in 10.0 mi SSE 10.4 mph - N/A   Clear
11:15 PM 78.8 °F - 71.6 °F 78% 30.20 in 10.0 mi South 13.8 mph - N/A   Clear
11:35 PM 78.8 °F - 73.4 °F 83% 30.20 in 10.0 mi South 11.5 mph - N/A   Clear
11:55 PM 78.8 °F - 73.4 °F 83% 30.20 in 10.0 mi South 11.5 mph - N/A   Clear